Weather History for Redwood Falls, MN

Change the Weather History Date:

Thursday, February 6, 2014

  Actual Average Record
Temperature  
Mean Temperature -3 °F -  
Max Temperature 3 °F 23 °F 57 °F (1987)
Min Temperature -9 °F 4 °F -20 °F (1936)
Degree Days  
Heating Degree Days 68    
Moisture  
Dew Point -10 °F    
Average Humidity 67    
Maximum Humidity 75    
Minimum Humidity 60    
Precipitation  
Precipitation 0.00 in - - ()
Sea Level Pressure  
Sea Level Pressure 30.43 in    
Wind  
Wind Speed 14 mph (West)    
Max Wind Speed 22 mph    
Max Gust Speed 30 mph    
Visibility 10 miles    
Events      
Averages and records for this station are not official NWS values.
T = Trace of Precipitation, MM = Missing Value Source: NWS Daily Summary

Daily Weather History Graph

Daily Weather History Graph

Search for Another Location

Airport:

Trip Planner

Search our weather history database for the weather conditions in past years. The results will help you decide how hot, cold, wet, or windy it might be!

Date:

Astronomy

Feb. 06, 2014 Rise Set
Actual Time 7:32 AM CST 5:36 PM CST
Civil Twilight 7:02 AM CST 6:07 PM CST
Nautical Twilight 6:27 AM CST 6:41 PM CST
Astronomical Twilight 5:53 AM CST 7:15 PM CST
Moon 11:08 AM CST (2/6) 12:49 AM CST (2/6)
Length of Visible Light 11h 04m
Length of Day
10h 03m
Waxing Crescent, 49% of the Moon is Illuminated
Feb 6
Waxing Crescent
Feb 6
First Quarter
Feb 14
Full
Feb 22
Last Quarter
Mar 1
New

Hourly Weather History & Observations

Time (CST) Temp. Windchill Dew Point Humidity Pressure Visibility Wind Dir Wind Speed Gust Speed Precip Events Conditions
12:53 AM -7.1 °F -25.9 °F -13.0 °F 75% 30.59 in 10.0 mi WNW 11.5 mph - N/A   Clear
1:53 AM -8.0 °F -27.1 °F -14.1 °F 75% 30.58 in 10.0 mi WNW 11.5 mph - N/A   Clear
2:53 AM -8.0 °F -28.0 °F -15.0 °F 71% 30.58 in 10.0 mi West 12.7 mph - N/A   Clear
3:53 AM -8.0 °F -28.0 °F -15.0 °F 71% 30.56 in 10.0 mi West 12.7 mph - N/A   Clear
4:53 AM -8.0 °F -28.8 °F -15.0 °F 71% 30.56 in 10.0 mi West 13.8 mph - N/A   Clear
5:53 AM -9.0 °F -30.2 °F -15.0 °F 75% 30.55 in 10.0 mi West 13.8 mph - N/A   Clear
6:53 AM -9.0 °F -30.9 °F -15.0 °F 75% 30.54 in 10.0 mi West 15.0 mph - N/A   Clear
7:53 AM -7.1 °F -29.1 °F -15.0 °F 68% 30.53 in 10.0 mi West 16.1 mph - N/A   Clear
8:53 AM -6.0 °F -28.4 °F -14.1 °F 68% 30.53 in 10.0 mi West 17.3 mph - N/A   Clear
9:53 AM -2.9 °F -23.1 °F -11.9 °F 65% 30.51 in 10.0 mi West 15.0 mph - N/A   Clear
10:53 AM -0.0 °F -18.7 °F -9.9 °F 63% 30.51 in 10.0 mi West 13.8 mph - N/A   Clear
11:53 AM 1.9 °F -18.7 °F -8.0 °F 63% 30.49 in 10.0 mi West 18.4 mph 25.3 mph N/A   Clear
12:53 PM 3.0 °F -17.8 °F -8.0 °F 60% 30.46 in 10.0 mi West 19.6 mph 29.9 mph N/A   Clear
1:38 PM 3.9 °F -16.1 °F -6.0 °F 64% 30.34 in 9.0 mi West 18.4 mph - N/A   Mostly Cloudy
1:53 PM 3.9 °F -17.6 °F -6.0 °F 64% 30.43 in 10.0 mi West 21.9 mph 27.6 mph N/A   Mostly Cloudy
2:08 PM 3.9 °F -14.3 °F -7.1 °F 60% 30.33 in 10.0 mi West 15.0 mph 27.6 mph N/A   Scattered Clouds
2:53 PM 3.9 °F -15.0 °F -6.0 °F 64% 30.41 in 10.0 mi West 16.1 mph 26.5 mph N/A   Scattered Clouds
3:08 PM 3.9 °F -15.0 °F -6.0 °F 64% 30.31 in 10.0 mi West 16.1 mph 24.2 mph N/A   Mostly Cloudy
3:43 PM 3.9 °F -17.1 °F -6.0 °F 64% 30.31 in 10.0 mi West 20.7 mph 26.5 mph N/A   Partly Cloudy
3:53 PM 3.9 °F -16.1 °F -6.0 °F 64% 30.40 in 10.0 mi West 18.4 mph - N/A   Partly Cloudy
4:53 PM 3.0 °F -16.7 °F -6.0 °F 66% 30.38 in 10.0 mi West 17.3 mph 24.2 mph N/A   Partly Cloudy
5:23 PM 3.0 °F -15.5 °F -7.1 °F 63% 30.28 in 10.0 mi West 15.0 mph - N/A   Mostly Cloudy
5:53 PM 1.9 °F -16.2 °F -7.1 °F 66% 30.38 in 10.0 mi West 13.8 mph - N/A   Overcast
6:53 PM 1.9 °F -14.7 °F -7.1 °F 66% 30.37 in 10.0 mi West 11.5 mph - N/A   Overcast
7:02 PM 1.9 °F -13.8 °F -7.1 °F 66% 30.28 in 10.0 mi West 10.4 mph - N/A   Overcast
7:53 PM 1.0 °F -14.9 °F -8.0 °F 66% 30.36 in 10.0 mi West 10.4 mph - N/A   Overcast
8:53 PM 1.0 °F -15.8 °F -8.0 °F 66% 30.35 in 10.0 mi West 11.5 mph - N/A   Mostly Cloudy
9:53 PM -0.0 °F -17.1 °F -8.0 °F 69% 30.35 in 10.0 mi WSW 11.5 mph - N/A   Clear
10:53 PM -0.9 °F -19.1 °F -9.0 °F 69% 30.33 in 10.0 mi West 12.7 mph - N/A   Clear
11:53 PM -0.9 °F -18.3 °F -9.0 °F 69% 30.32 in 10.0 mi WSW 11.5 mph - N/A   Clear